[[{"header":{"parameterUnit":"m.s-1","parameterCategory":1,"la1":30.2991,"la2":30.254,"lo1":-89.0895,"lo2":-89.0444,"dy":0.0017,"dx":0.0017,"nx":28,"ny":28,"refTime":"2025-09-03T09:00:00:Z","depth":0,"parameterNumber":2,"parameterNumberName":"U-component_of_WINDS"},"data":[0,0,0,0,0,0,0,0,0,0,0,0,0,0,0,0,0,0,0,0,0,0,0,0,0,0,0,0,0,0,0,0,0,0,0,0,0,0,0,0,0,0,0,0,0,0,0,0,0,0,0,0,0,0,0,0,0,0,-2.3618,-2.3618,0,-2.3624,-2.3624,-2.3624,-2.3553,-2.3551,-2.3549,-2.3547,-2.3553,-2.3555,-2.3557,0,0,0,0,0,0,0,0,0,0,0,0,0,-2.3548,-2.3549,-2.3618,-2.3618,-2.3618,-2.3624,-2.3624,-2.3624,-2.3553,-2.3551,-2.3548,-2.3546,-2.3552,-2.3555,-2.3557,0,0,0,0,0,0,0,0,0,0,0,0,0,-2.3568,-2.355,-2.3618,-2.3584,-2.3581,-2.3624,-2.3624,-2.3624,-2.3553,-2.3551,-2.3548,-2.3545,-2.3552,-2.3555,-2.3557,-2.3634,0,0,-2.3567,-2.3568,0,0,0,0,0,0,0,0,-2.3567,-2.3571,-2.3589,-2.3586,-2.3583,-2.3585,-2.3601,-2.3628,-2.3554,-2.3564,-2.3547,-2.3543,-2.3566,-2.3568,-2.3575,-2.3635,-2.3635,-2.3567,-2.3569,-2.357,-2.3571,0,0,0,0,0,0,0,-2.3566,-2.357,-2.362,-2.3589,-2.3585,-2.3568,-2.3568,-2.3606,-2.3581,-2.3563,-2.3558,-2.3559,-2.3564,-2.3572,-2.3575,-2.3635,-2.3567,-2.3569,-2.3571,-2.3572,-2.3759,-2.3762,0,0,0,0,0,0,-2.3569,-2.357,-2.362,-2.3621,-2.3568,-2.3572,-2.3572,-2.3587,-2.3581,-2.3577,-2.3562,-2.3556,-2.3569,-2.3571,-2.3575,-2.3665,-2.357,-2.3573,-2.3574,-2.3756,-2.376,-2.3764,0,0,0,0,0,0,-2.3568,-2.3574,-2.362,-2.3594,-2.3598,-2.3576,-2.3594,-2.3589,-2.3597,-2.358,-2.3575,-2.3575,-2.3566,-2.357,-2.362,-2.3664,-2.3574,-2.3577,-2.3753,-2.3757,-2.3762,-2.3845,0,0,0,0,0,0,-2.3566,-2.3574,-2.3603,-2.3595,-2.36,-2.3665,-2.3597,-2.3591,-2.3602,-2.3595,-2.3591,-2.3587,-2.3564,-2.3616,-2.3623,-2.3666,-2.3579,-2.3748,-2.3755,-2.376,-2.3838,-2.3852,-2.3864,0,0,0,0,0,-2.3564,-2.3626,-2.3604,-2.3611,-2.3635,-2.3668,-2.3671,-2.3643,-2.3606,-2.3635,-2.3624,-2.3588,-2.3658,-2.3622,-2.3629,-2.3674,-2.3746,-2.3753,-2.376,-2.3833,-2.3849,-2.3864,0,0,0,0,0,0,-2.3639,-2.3624,-2.36,-2.3661,-2.3667,-2.3656,-2.3691,-2.3662,-2.3677,-2.3669,-2.3635,-2.3634,-2.369,-2.3687,-2.3647,-2.3749,-2.3696,-2.3705,-2.3748,-2.3764,-2.3777,-2.3776,-2.3581,0,0,0,0,0,-2.3662,-2.369,-2.3676,-2.3731,-2.3735,-2.3713,-2.3726,-2.3705,-2.3708,-2.371,-2.3703,-2.3709,-2.3732,-2.3748,-2.3769,-2.3838,-2.3837,-2.3873,-2.3886,-2.3896,-2.3904,-2.3942,-2.3957,-2.3787,-2.3787,-2.3787,0,0,-2.3711,-2.3707,-2.3726,-2.3746,-2.3747,-2.3778,-2.3715,-2.3749,-2.3771,-2.3715,-2.3762,-2.3757,-2.3761,-2.3822,-2.3848,-2.3821,-2.3951,-2.3905,-2.3914,-2.3916,-2.3951,-2.3967,-2.3981,-2.3792,-2.3791,-2.379,0,0,-2.3816,-2.3815,-2.3861,-2.3865,-2.3868,-2.3853,-2.3864,-2.3859,-2.3853,-2.39,-2.3859,-2.3885,-2.3926,-2.3931,-2.3939,-2.4048,-2.4015,-2.4056,-2.4122,-2.4159,-2.4173,-2.4184,-2.4223,-2.4238,-2.4064,-2.4064,-2.4064,0,-2.3876,-2.3919,-2.3889,-2.3926,-2.3936,-2.3888,-2.3935,-2.394,-2.395,-2.3959,-2.3928,-2.398,-2.3979,-2.404,-2.4067,-2.4075,-2.4087,-2.4055,-2.4173,-2.4185,-2.4195,-2.4232,-2.4247,-2.4069,-2.4069,-2.4068,-2.4068,0,-2.3993,-2.4024,-2.4061,-2.4072,-2.4087,-2.4129,-2.4106,-2.4125,-2.4103,-2.4092,-2.4141,-2.4138,-2.4158,-2.4171,-2.415,-2.423,-2.4214,-2.4179,-2.4125,-2.4217,-2.4251,-2.4265,-2.4076,-2.4074,-2.4073,-2.4072,0,0,-2.4142,-2.4138,-2.4152,-2.4157,-2.4159,-2.4182,-2.4223,-2.4242,-2.4259,-2.4269,-2.4302,-2.4339,-2.4308,-2.4317,-2.4296,-2.4328,-2.4416,-2.429,-2.4289,-2.4313,-2.4505,-2.453,-2.4547,-2.4395,-2.4397,-2.4399,-2.4504,0,-2.4244,-2.4312,-2.4288,-2.4358,-2.4386,-2.4342,-2.4378,-2.4383,-2.4375,-2.4398,-2.4388,-2.4415,-2.4372,-2.4377,-2.4407,-2.4399,-2.4454,-2.4391,-2.4426,-2.4427,-2.4425,-2.4565,-2.4591,-2.469,-2.4518,-2.452,-2.4521,0,-2.437,-2.4385,-2.4459,-2.4456,-2.4467,-2.45,-2.4516,-2.4539,-2.4545,-2.4537,-2.4548,-2.4521,-2.4561,-2.4509,-2.4564,-2.4522,-2.4536,-2.4534,-2.4537,-2.4538,-2.4479,-2.457,-2.4721,-2.4736,-2.4542,-2.454,-2.4539,0,-2.4472,-2.4511,-2.4559,-2.4565,-2.4564,-2.4588,-2.4588,-2.4591,-2.4605,-2.462,-2.4629,-2.4649,-2.466,-2.4676,-2.4656,-2.4619,-2.4715,-2.466,-2.4709,-2.471,-2.473,-2.4729,-2.4886,-2.4741,-2.474,-2.474,-2.474,0,-2.4587,-2.4634,-2.4605,-2.4635,-2.4687,-2.4659,-2.4711,-2.4706,-2.471,-2.4739,-2.4703,-2.4731,-2.4702,-2.4728,-2.4712,-2.4761,-2.4767,-2.4761,-2.4756,-2.4764,-2.4765,-2.4771,-2.4764,-2.4744,-2.4743,-2.4742,-2.4742,0,-2.4708,-2.4691,-2.4741,-2.4737,-2.4737,-2.4775,-2.4771,-2.4799,-2.4789,-2.4826,-2.4833,-2.4817,-2.4846,-2.4828,-2.4857,-2.4846,-2.4911,-2.4897,-2.4909,-2.4905,-2.4955,-2.495,-2.5121,-2.5142,-2.4984,-2.4985,-2.4987,0,-2.4782,-2.4817,-2.4816,-2.4833,-2.4836,-2.4864,-2.4878,-2.4853,-2.487,-2.488,-2.4907,-2.4933,-2.4952,-2.5001,-2.4992,-2.5015,-2.5001,-2.5059,-2.5004,-2.5011,-2.5001,-2.4999,-2.5003,-2.507,-2.5072,-2.5073,-2.5074,0,-2.4915,-2.4905,-2.4927,-2.4947,-2.4966,-2.498,-2.4991,-2.5007,-2.4982,-2.5003,-2.5032,-2.5047,-2.5078,-2.5104,-2.5124,-2.5125,-2.5096,-2.5092,-2.5105,-2.5112,-2.5118,-2.5116,-2.4938,-2.5088,-2.5087,-2.5086,-2.5085,-2.5084,-2.5014,-2.5044,-2.5048,-2.5074,-2.5081,-2.5093,-2.5119,-2.5113,-2.5137,-2.5159,-2.5144,-2.5179,-2.5185,-2.5208,-2.5214,-2.5241,-2.5218,-2.5236,-2.524,-2.5245,-2.5252,-2.5115,-2.5245,-2.5245,-2.5244,-2.5244,-2.5244,0,-2.5145,-2.5147,-2.5171,-2.5188,-2.521,-2.5181,-2.5193,-2.5213,-2.5244,-2.5252,-2.5273,-2.5307,-2.5333,-2.5328,-2.5352,-2.5375,-2.5362,-2.5382,-2.538,-2.5381,-2.5272,-2.5258,-2.5392,-2.5392,-2.5392,-2.5392,-2.5392,-2.5392,-2.5216,-2.5264,-2.5255,-2.5307,-2.5308,-2.5342,-2.5351,-2.5363,-2.537,-2.541,-2.5431,-2.5428,-2.5431,-2.5455,-2.5479,-2.5476,-2.5487,-2.5511,-2.5504,-2.5403,-2.5388,-2.5374,-2.5361,-2.5514,-2.5514,-2.5611,-2.5612,-2.5612]},{"header":{"parameterUnit":"m.s-1","parameterCategory":1,"la1":30.2991,"la2":30.254,"lo1":-89.0895,"lo2":-89.0444,"dy":0.0017,"dx":0.0017,"nx":28,"ny":28,"refTime":"2025-09-03T09:00:00:Z","depth":0,"parameterNumber":3,"parameterNumberName":"V-component_of_WINDS"},"data":[0,0,0,0,0,0,0,0,0,0,0,0,0,0,0,0,0,0,0,0,0,0,0,0,0,0,0,0,0,0,0,0,0,0,0,0,0,0,0,0,0,0,0,0,0,0,0,0,0,0,0,0,0,0,0,0,0,0,1.3519,1.3519,0,1.357,1.3571,1.3571,1.3625,1.3626,1.3627,1.3628,1.3676,1.3676,1.3677,0,0,0,0,0,0,0,0,0,0,0,0,0,1.3465,1.3465,1.3519,1.352,1.352,1.357,1.3571,1.3571,1.3625,1.3626,1.3627,1.3628,1.3676,1.3676,1.3677,0,0,0,0,0,0,0,0,0,0,0,0,0,1.3499,1.3465,1.3519,1.3553,1.3557,1.357,1.3571,1.3571,1.3625,1.3626,1.3627,1.3628,1.3675,1.3676,1.3677,1.3659,0,0,1.368,1.368,0,0,0,0,0,0,0,0,1.3497,1.3501,1.3547,1.3551,1.3555,1.3593,1.3569,1.3601,1.3625,1.3599,1.3628,1.3629,1.3647,1.365,1.3657,1.3661,1.3663,1.368,1.368,1.3681,1.3681,0,0,0,0,0,0,0,1.3494,1.3499,1.3539,1.3548,1.3553,1.3565,1.3571,1.3575,1.3616,1.3601,1.3605,1.3611,1.3649,1.3656,1.3659,1.3664,1.368,1.368,1.3681,1.3681,1.3655,1.3654,0,0,0,0,0,0,1.3487,1.3497,1.3537,1.3541,1.3528,1.3565,1.3572,1.3579,1.3616,1.3623,1.361,1.3613,1.3654,1.3658,1.366,1.3641,1.3681,1.3681,1.3682,1.3656,1.3655,1.3654,0,0,0,0,0,0,1.3486,1.3491,1.3535,1.352,1.3526,1.3565,1.3572,1.358,1.3587,1.3622,1.3629,1.361,1.3655,1.3659,1.3659,1.3643,1.3682,1.3683,1.3658,1.3656,1.3654,1.3602,0,0,0,0,0,0,1.3484,1.349,1.3484,1.3519,1.3527,1.3534,1.3572,1.358,1.3588,1.3593,1.3624,1.363,1.3656,1.3658,1.366,1.3645,1.3683,1.3659,1.3657,1.3655,1.3605,1.3599,1.3593,0,0,0,0,0,1.3482,1.3467,1.3483,1.3488,1.3521,1.3533,1.3537,1.3569,1.3587,1.3581,1.3604,1.3629,1.3645,1.3657,1.366,1.3645,1.366,1.3658,1.3655,1.3608,1.36,1.3593,0,0,0,0,0,0,1.3427,1.3472,1.3491,1.3487,1.3506,1.3542,1.3535,1.3559,1.3573,1.3576,1.3614,1.362,1.3615,1.3631,1.3643,1.363,1.3656,1.3654,1.3619,1.3612,1.3606,1.3602,1.3684,0,0,0,0,0,1.3415,1.3422,1.346,1.3453,1.3461,1.3497,1.3503,1.3526,1.3547,1.3554,1.3577,1.3595,1.3604,1.3609,1.362,1.3608,1.3615,1.36,1.3594,1.3588,1.3585,1.3579,1.3573,1.3645,1.3645,1.3645,0,0,1.3389,1.3414,1.3416,1.3442,1.346,1.3465,1.3503,1.3507,1.3511,1.3555,1.3556,1.3573,1.3596,1.359,1.3588,1.3602,1.3567,1.3585,1.3581,1.358,1.3576,1.3569,1.3563,1.3643,1.3643,1.3643,0,0,1.3344,1.3364,1.336,1.3377,1.3403,1.3427,1.3426,1.3459,1.3472,1.3475,1.3507,1.3512,1.3527,1.3542,1.3551,1.3512,1.3535,1.3514,1.3481,1.3475,1.3469,1.3464,1.3449,1.3443,1.3511,1.3511,1.3511,0,1.3307,1.3318,1.3354,1.3356,1.3366,1.3408,1.3403,1.3417,1.3445,1.345,1.3466,1.3486,1.3504,1.3501,1.3492,1.3499,1.3497,1.351,1.3468,1.3463,1.3459,1.3445,1.3439,1.3508,1.3509,1.3509,1.3509,0,1.3271,1.3278,1.3271,1.3298,1.3308,1.3306,1.3341,1.3346,1.3368,1.339,1.3391,1.3414,1.343,1.3431,1.3452,1.3431,1.3439,1.3461,1.3488,1.3449,1.3436,1.3431,1.3504,1.3505,1.3506,1.3507,0,0,1.3192,1.324,1.3236,1.3249,1.3281,1.3287,1.3287,1.3303,1.3306,1.3324,1.3324,1.3336,1.3356,1.3367,1.339,1.3385,1.3351,1.3407,1.3408,1.3395,1.3327,1.331,1.3303,1.3367,1.3367,1.3366,1.3325,0,1.3151,1.3155,1.3188,1.3181,1.3187,1.3227,1.3227,1.3246,1.3266,1.3273,1.3296,1.3303,1.333,1.3337,1.3333,1.3356,1.3338,1.3359,1.3366,1.3366,1.3357,1.3296,1.3278,1.3238,1.332,1.332,1.3319,0,1.3104,1.312,1.3115,1.3147,1.3151,1.315,1.3168,1.3175,1.3197,1.3212,1.3224,1.3251,1.3252,1.3279,1.328,1.3294,1.3299,1.331,1.3309,1.331,1.3339,1.3293,1.3226,1.322,1.3312,1.3312,1.3313,0,1.3045,1.3065,1.3065,1.3074,1.3112,1.3111,1.3126,1.315,1.3158,1.3173,1.3178,1.3192,1.32,1.321,1.3239,1.3256,1.3236,1.3266,1.3247,1.3246,1.324,1.3239,1.3171,1.3246,1.3246,1.3246,1.3246,0,1.2995,1.2989,1.3038,1.3037,1.3032,1.307,1.3063,1.3083,1.3103,1.3106,1.3142,1.3143,1.3183,1.3189,1.3212,1.3208,1.3212,1.3223,1.3229,1.3219,1.3217,1.3221,1.3224,1.3244,1.3245,1.3245,1.3245,0,1.2927,1.2959,1.2961,1.2998,1.3007,1.3001,1.3032,1.3032,1.3055,1.3058,1.3061,1.3096,1.3105,1.3136,1.3152,1.3167,1.3156,1.3168,1.3148,1.3152,1.3131,1.3131,1.306,1.3052,1.3134,1.3133,1.3132,0,1.2892,1.2889,1.2925,1.293,1.2945,1.2952,1.2961,1.2998,1.3005,1.303,1.3026,1.3038,1.3049,1.3061,1.3087,1.3099,1.3112,1.3086,1.3113,1.3103,1.3109,1.3108,1.3108,1.3079,1.3078,1.3077,1.3077,0,1.2826,1.2843,1.2854,1.2871,1.288,1.2895,1.2911,1.2913,1.2954,1.296,1.297,1.2979,1.2996,1.3006,1.3023,1.3037,1.3063,1.3068,1.3064,1.3053,1.3041,1.3046,1.313,1.3069,1.307,1.307,1.3071,1.3071,1.2773,1.2772,1.2797,1.2808,1.2825,1.284,1.2842,1.2865,1.2875,1.2892,1.2913,1.292,1.2942,1.2967,1.298,1.2985,1.2999,1.2994,1.2992,1.299,1.2984,1.3042,1.2988,1.2989,1.2989,1.2989,1.2989,0,1.2707,1.2726,1.2736,1.2759,1.2767,1.2793,1.2813,1.2818,1.2824,1.2843,1.2854,1.2864,1.2875,1.2903,1.2916,1.2914,1.2926,1.2916,1.2916,1.2918,1.2972,1.2973,1.2906,1.2906,1.2906,1.2906,1.2906,1.2906,1.2674,1.2673,1.2693,1.27,1.2719,1.2727,1.2736,1.2749,1.2765,1.2776,1.2785,1.2804,1.2826,1.2841,1.2851,1.2859,1.2861,1.2847,1.2858,1.2907,1.2915,1.2922,1.2924,1.2847,1.2847,1.2804,1.2804,1.2803]}]]